Location: ????????
(41.2031°N, 22.5756°E)
Time: 13:35:37
(UTC+00:00)

SKYMED 2 - Pass Details

Date: 01 December 2020
Orbit: 621 x 623 km, 97.9° (Epoch: 21 January)

Event Time Altitude Azimuth Distance (km) Brightness Sun altitude
Exits shadow 16:34:13 10° 15° (NNE) 1,978 5.9 -17.0°
Maximum altitude 16:38:32 80° 102° (ESE) 637 3.4 -17.8°
Drops below altitude 10° 16:42:51 10° 190° (S) 1,986 6.4 -18.6°
Sets 16:45:02 0° 192° (SSW) 2,887 7.3 -19.0°
